Location: *
(43.9900°N, 3.4811°E)
Time: 08:05:22
(UTC+00:00)

ATLAS 2AS CENTAUR R/B - Pass Details

Date: 25 August 2019
Orbit: 927 x 1285 km, 63.7° (Epoch: 14 September)

Event Time Altitude Azimuth Distance (km) Brightness Sun altitude
Rises 23:40:59 0° 323° (NW) 4,224 6.5 -35.4°
Reaches altitude 10° 23:43:58 10° 328° (NNW) 3,222 5.8 -35.4°
Maximum altitude 23:51:32 52° 44° (NE) 1,440 3.4 -35.4°
Enters shadow 23:52:23 50° 67° (ENE) 1,467 3.4 -35.4°
